FW3936 Weather Reports


time (UTC)temp
C
wind
direction
speed
KPH
gust
KPH
rain 1hr
cm
rain 24hr
cm
rain mn
cm
humidity
%
barometer
mb
20260510071502 21 102 0.0 3.2 0.00 0.00 0.00 73 1012.1
20260510070001 21 102 0.0 1.6 0.00 0.00 0.00 72 1012.0
20260510064605 22 102 0.0 4.8 0.00 0.00 0.00 72 1012.1
20260510063059 22 102 0.0 3.2 0.00 0.00 0.00 73 1012.0
20260510061558 21 102 0.0 1.6 0.00 0.00 0.00 74 1012.1
20260510060056 21 102 0.0 4.8 0.00 0.00 0.00 74 1012.3
20260510054553 21 102 0.0 3.2 0.00 0.00 0.00 74 1012.1
20260510053051 21 102 0.0 4.8 0.00 0.00 0.00 74 1011.9
20260510051549 21 102 1.6 4.8 0.00 0.00 0.00 74 1012.0
20260510050046 21 102 0.0 0.0 0.00 0.00 0.00 74 1011.9
20260510044547 21 102 0.0 0.0 0.00 0.00 0.00 74 1011.8
20260510043052 21 102 0.0 0.0 0.00 0.00 0.00 73 1011.7
20260510041544 22 102 0.0 0.0 0.00 0.00 0.00 74 1011.5
20260510040043 22 102 0.0 0.0 0.00 0.00 0.00 73 1011.5
20260510034542 22 102 0.0 3.2 0.00 0.00 0.00 72 1011.4
20260510033051 22 102 1.6 4.8 0.00 0.00 0.00 72 1011.2
20260510031547 22 102 1.6 3.2 0.00 0.00 0.00 71 1011.2
20260510030040 23 102 0.0 1.6 0.00 0.00 0.00 70 1011.0
20260510024544 23 102 0.0 4.8 0.00 0.00 0.00 68 1010.9
20260510023039 23 102 0.0 3.2 0.00 0.00 0.00 67 1010.7
20260510021538 23 102 1.6 4.8 0.00 0.00 0.00 66 1010.7
20260510020039 24 102 1.6 8.0 0.00 0.00 0.00 65 1010.5
20260510014537 25 102 1.6 8.0 0.00 0.00 0.00 65 1010.3
20260510013036 25 100 4.8 11.3 0.00 0.00 0.00 65 1010.0
20260510011547 25 96 4.8 8.0 0.00 0.00 0.00 63 1009.8
20260510010036 26 96 3.2 9.7 0.00 0.00 0.00 60 1009.6
20260510004537 26 96 1.6 8.0 0.00 0.00 0.00 56 1009.4
20260510003057 27 98 3.2 16.1 0.00 0.00 0.00 56 1009.3
20260510001539 27 96 1.6 4.8 0.00 0.00 0.00 63 1009.0
20260510000037 27 96 0.0 0.0 0.00 0.00 0.00 61 1008.9
20260509234536 28 96 0.0 0.0 0.00 0.00 0.00 59 1008.8
20260509233032 28 96 1.6 4.8 0.00 0.00 0.00 55 1008.9
20260509231540 29 119 3.2 16.1 0.00 0.00 0.00 54 1008.8
20260509230034 29 199 1.6 6.4 0.00 0.00 0.00 55 1008.8
20260509224533 30 200 1.6 6.4 0.00 0.00 0.00 52 1008.8
20260509223030 30 223 0.0 0.0 0.00 0.00 0.00 52 1008.8
20260509221529 30 223 0.0 0.0 0.00 0.00 0.00 56 1008.8
20260509220030 30 223 0.0 3.2 0.00 0.00 0.00 55 1008.8
20260509214527 30 223 0.0 4.8 0.00 0.00 0.00 50 1008.9
20260509213024 31 223 0.0 4.8 0.00 0.00 0.00 47 1008.7
20260509211523 32 223 0.0 8.0 0.00 0.00 0.00 44 1008.9
20260509210023 31 220 0.0 4.8 0.00 0.00 0.00 48 1009.2
20260509204518 32 224 0.0 6.4 0.00 0.00 0.00 50 1009.4
20260509203020 32 261 0.0 8.0 0.00 0.00 0.00 48 1009.6
20260509201513 33 238 0.0 8.0 0.00 0.00 0.00 47 1009.7
20260509200009 32 159 3.2 14.5 0.00 0.00 0.00 47 1010.0
20260509194511 32 143 3.2 12.9 0.00 0.00 0.00 48 1010.3
20260509193005 31 267 1.6 9.7 0.00 0.00 0.00 52 1010.5
20260509191504 31 168 0.0 4.8 0.00 0.00 0.00 50 1010.9
20260509190001 32 167 1.6 8.0 0.00 0.00 0.00 50 1011.0
20260509184602 31 273 0.0 8.0 0.00 0.00 0.00 53 1011.0
20260509183136 31 271 0.0 11.3 0.00 0.00 0.00 54 1011.2
20260509181609 30 228 1.6 6.4 0.00 0.00 0.00 57 1011.4
20260509180051 30 170 0.0 3.2 0.00 0.00 0.00 57 1011.5
20260509174550 30 169 3.2 11.3 0.00 0.00 0.00 56 1011.8
20260509173045 30 265 0.0 11.3 0.00 0.00 0.00 58 1011.8
20260509171544 29 198 1.6 6.4 0.00 0.00 0.00 62 1011.8
20260509170038 28 268 1.6 9.7 0.00 0.00 0.00 64 1012.0
20260509164534 27 165 0.0 8.0 0.00 0.00 0.00 67 1012.0
20260509163033 27 267 1.6 8.0 0.00 0.00 0.00 71 1012.1
20260509161529 26 146 1.6 4.8 0.00 0.00 0.00 72 1012.3
20260509160025 25 136 0.0 8.0 0.00 0.00 0.00 72 1012.1
20260509154522 25 138 1.6 8.0 0.00 0.00 0.00 73 1012.1
20260509153018 23 137 3.2 11.3 0.00 0.00 0.00 72 1011.8
20260509151516 23 132 0.0 6.4 0.00 0.00 0.00 70 1012.5
20260509150015 22 59 0.0 3.2 0.00 0.00 0.00 62 1012.7
20260509144517 22 59 0.0 4.8 0.00 0.00 0.00 59 1012.8
20260509143006 22 53 0.0 3.2 0.00 0.00 0.00 58 1012.8
20260509141503 22 52 0.0 1.6 0.00 0.00 0.00 56 1012.4
20260509140001 22 52 0.0 1.6 0.00 0.00 0.00 55 1011.6
20260509134601 21 52 0.0 0.0 0.00 0.00 0.00 56 1011.6
20260509133105 21 52 0.0 0.0 0.00 0.00 0.00 56 1011.9
20260509131555 21 52 0.0 0.0 0.00 0.00 0.00 56 1012.2
20260509130053 21 52 0.0 4.8 0.00 0.00 0.00 57 1012.0
20260509124552 21 64 0.0 1.6 0.00 0.00 0.00 57 1011.9
20260509123053 21 64 0.0 1.6 0.00 0.00 0.00 57 1012.0
20260509121551 21 65 0.0 4.8 0.00 0.00 0.00 57 1011.9
20260509120053 21 64 1.6 4.8 0.00 0.00 0.00 58 1011.7
20260509114548 21 317 0.0 8.0 0.00 0.00 0.00 58 1012.1
20260509113048 21 342 0.0 11.3 0.00 0.00 0.00 58 1012.0
20260509111549 21 23 0.0 4.8 0.00 0.00 0.00 59 1011.8
20260509110044 21 132 0.0 0.0 0.00 0.00 0.00 59 1011.1
20260509104545 21 132 0.0 1.6 0.00 0.00 0.00 59 1011.3
20260509103043 21 132 0.0 1.6 0.00 0.00 0.00 59 1011.5
20260509101551 21 132 0.0 3.2 0.00 0.00 0.00 60 1011.5
20260509100041 21 132 0.0 3.2 0.00 0.00 0.00 60 1011.3
20260509094541 21 132 0.0 1.6 0.00 0.00 0.00 60 1011.0
20260509093052 21 132 0.0 1.6 0.00 0.00 0.00 61 1010.6
20260509091540 21 132 0.0 0.0 0.00 0.00 0.00 61 1010.5
20260509090037 21 132 0.0 0.0 0.00 0.00 0.00 61 1010.7
20260509084545 21 132 0.0 0.0 0.00 0.00 0.00 62 1010.5
20260509083037 21 132 0.0 1.6 0.00 0.00 0.00 62 1010.6
20260509081539 21 132 0.0 1.6 0.00 0.00 0.00 62 1010.9
20260509080048 21 132 0.0 4.8 0.00 0.00 0.00 63 1010.8
20260509074537 21 132 0.0 1.6 0.00 0.00 0.00 63 1010.5
20260509073037 21 132 0.0 3.2 0.00 0.00 0.00 64 1010.7